This is the latest recevied weather packets stored in our database for station/object IW7DVM-13. If no packets are shown the sender has not sent any weather packets the latest 10 day(s).
| Time | Temp. | Humidity | Pressure | Rain* | Wind** | Luminosity | Snow |
|---|---|---|---|---|---|---|---|
| 1787404803 | 34.44° C | 50% | 1006.5 hPa | 0 mm | - | - | - |
| 1787404503 | 34.44° C | 51% | 1006.4 hPa | 0 mm | - | - | - |
| 1787404203 | 33.89° C | 53% | 1006.4 hPa | 0 mm | - | - | - |
| 1787403903 | 34.44° C | 49% | 1006.5 hPa | 0 mm | - | - | - |
| 1787403603 | 34.44° C | 52% | 1006.5 hPa | 0 mm | - | - | - |
| 1787403303 | 34.44° C | 50% | 1006.6 hPa | 0 mm | - | - | - |
| 1787403003 | 35° C | 46% | 1006.6 hPa | 0 mm | - | - | - |
| 1787402703 | 34.44° C | 47% | 1006.6 hPa | 0 mm | - | - | - |
| 1787402403 | 34.44° C | 46% | 1006.7 hPa | 0 mm | - | - | - |
| 1787402103 | 34.44° C | 48% | 1006.8 hPa | 0 mm | - | - | - |
| 1787401803 | 34.44° C | 45% | 1006.7 hPa | 0 mm | - | - | - |
| 1787401503 | 35° C | 48% | 1006.6 hPa | 0 mm | - | - | - |
| 1787401203 | 34.44° C | 48% | 1006.7 hPa | 0 mm | - | - | - |
| 1787400903 | 33.89° C | 45% | 1006.7 hPa | 0 mm | - | - | - |
| 1787400603 | 34.44° C | 49% | 1006.7 hPa | 0 mm | - | - | - |
| 1787400303 | 35.56° C | 45% | 1006.6 hPa | 0 mm | - | - | - |
| 1787400003 | 35.56° C | 43% | 1006.7 hPa | 0 mm | - | - | - |
| 1787399703 | 35.56° C | 41% | 1006.7 hPa | 0 mm | - | - | - |
| 1787399403 | 35.56° C | 42% | 1006.7 hPa | 0 mm | - | - | - |
| 1787399103 | 35.56° C | 41% | 1006.7 hPa | 0 mm | - | - | - |
| 1787398803 | 35° C | 43% | 1006.8 hPa | 0 mm | - | - | - |
| 1787398503 | 34.44° C | 42% | 1006.8 hPa | 0 mm | - | - | - |
| 1787398203 | 35° C | 40% | 1006.8 hPa | 0 mm | - | - | - |
| 1787397903 | 35° C | 41% | 1007 hPa | 0 mm | - | - | - |
| 1787397603 | 35° C | 44% | 1007 hPa | 0 mm | - | - | - |
* Rain latest hour (hover to see other rain measurements)
** Current wind speed in m/s (hover to see current wind gust speed)